CW8443 Weather Reports


time (UTC)temp
C
wind
direction
speed
KPH
gust
KPH
rain 1hr
cm
rain 24hr
cm
rain mn
cm
humidity
%
barometer
mb
20260505041747 23 244 0.0 0.0 0.00 0.00 0.00 14 1015.0
20260505041239 24 245 0.0 0.0 0.00 0.00 0.00 14 1015.0
20260505040748 24 115 0.0 0.0 0.00 0.00 0.00 13 1015.0
20260505040246 24 79 0.0 0.0 0.00 0.00 0.00 13 1015.0
20260505040130 24 83 0.0 0.0 0.00 0.00 0.00 13 1015.0
20260505035753 24 76 0.0 0.0 0.00 0.00 0.00 13 1014.9
20260505035241 25 69 0.0 0.0 0.00 0.00 0.00 14 1014.9
20260505034734 24 73 0.0 0.0 0.00 0.00 0.00 14 1014.9
20260505034245 24 43 0.0 0.0 0.00 0.00 0.00 16 1015.0
20260505033254 23 56 0.0 0.0 0.00 0.00 0.00 15 1015.0
20260505033138 23 59 0.0 0.0 0.00 0.00 0.00 15 1015.0
20260505032248 23 60 0.0 0.0 0.00 0.00 0.00 15 1014.9
20260505031743 23 331 0.0 0.0 0.00 0.00 0.00 16 1014.9
20260505031242 22 90 0.0 0.0 0.00 0.00 0.00 16 1014.9
20260505030737 22 59 0.0 0.0 0.00 0.00 0.00 16 1014.9
20260505030253 23 83 0.0 0.0 0.00 0.00 0.00 16 1014.9
20260505025742 22 360 0.0 0.0 0.00 0.00 0.00 16 1014.9
20260505025252 22 29 0.0 0.0 0.00 0.00 0.00 17 1014.9
20260505023747 22 2 0.0 0.0 0.00 0.00 0.00 17 1015.2
20260505023248 22 59 0.0 0.0 0.00 0.00 0.00 16 1015.2
20260505023132 22 76 0.0 0.0 0.00 0.00 0.00 17 1015.2
20260505022753 22 360 0.0 0.0 0.00 0.00 0.00 16 1015.1
20260505022242 22 354 0.0 0.0 0.00 0.00 0.00 16 1015.1
20260505021740 22 357 0.0 0.0 0.00 0.00 0.00 17 1015.1
20260505021251 22 8 0.0 0.0 0.00 0.00 0.00 17 1015.1
20260505020249 21 314 0.0 0.0 0.00 0.00 0.00 17 1015.1
20260505020133 21 8 0.0 0.0 0.00 0.00 0.00 17 1015.1
20260505015754 21 14 0.0 0.0 0.00 0.00 0.00 18 1015.2
20260505015241 21 80 0.0 0.0 0.00 0.00 0.00 17 1015.2
20260505014246 21 4 0.0 0.0 0.00 0.00 0.00 18 1015.1
20260505013737 21 7 0.0 0.0 0.00 0.00 0.00 17 1015.1
20260505013254 21 329 0.0 0.0 0.00 0.00 0.00 17 1015.1
20260505012745 20 31 0.0 0.0 0.00 0.00 0.00 19 1014.9
20260505012253 20 69 0.0 0.0 0.00 0.00 0.00 18 1014.9
20260505011244 20 65 0.0 0.0 0.00 0.00 0.00 19 1015.0
20260505010754 20 31 0.0 0.0 0.00 0.00 0.00 18 1015.0
20260505010252 20 26 0.0 0.0 0.00 0.00 0.00 19 1015.0
20260505010136 20 10 0.0 0.0 0.00 0.00 0.00 19 1015.0
20260505004249 19 348 0.0 0.0 0.00 0.00 0.00 19 1014.9
20260505003241 19 330 0.0 0.0 0.00 0.00 0.00 18 1014.9
20260505003144 19 346 0.0 0.0 0.00 0.00 0.00 18 1014.9
20260505002743 19 329 0.0 0.0 0.00 0.00 0.00 18 1015.0
20260505002252 18 7 0.0 0.0 0.00 0.00 0.00 19 1014.9
20260505001745 18 70 0.0 0.0 0.00 0.00 0.00 19 1014.9
20260505000752 18 329 0.0 0.0 0.00 0.00 0.00 21 1014.9
20260505000248 18 320 0.0 0.0 0.00 0.00 0.00 18 1014.9
20260505000132 18 316 0.0 0.0 0.00 0.00 0.00 20 1014.9
20260504235753 18 353 0.0 0.0 0.00 0.00 0.00 19 1014.9
20260504235242 17 7 0.0 0.0 0.00 0.00 0.00 20 1014.9
20260504234739 17 307 0.0 0.0 0.00 0.00 0.00 21 1014.9
20260504234244 17 317 0.0 0.0 0.00 0.00 0.00 21 1015.3
20260504233754 17 296 0.0 0.0 0.00 0.00 0.00 22 1015.3
20260504233141 17 343 0.0 0.0 0.00 0.00 0.00 22 1015.3
20260504232237 17 337 0.0 0.0 0.00 0.00 0.00 23 1015.3
20260504231751 17 4 0.0 0.0 0.00 0.00 0.00 24 1015.3
20260504231242 17 12 0.0 0.0 0.00 0.00 0.00 25 1015.3
20260504230736 16 314 0.0 0.0 0.00 0.00 0.00 25 1015.3
20260504230253 16 104 0.0 0.0 0.00 0.00 0.00 25 1015.3
20260504230138 16 329 0.0 0.0 0.00 0.00 0.00 25 1015.3
20260504225736 16 327 0.0 0.0 0.00 0.00 0.00 26 1015.2
20260504225245 16 344 0.0 0.0 0.00 0.00 0.00 25 1015.2
20260504224740 16 327 0.0 0.0 0.00 0.00 0.00 25 1015.2
20260504224250 16 26 0.0 0.0 0.00 0.00 0.00 25 1015.0
20260504223743 16 93 0.0 0.0 0.00 0.00 0.00 26 1014.9
20260504223245 16 42 0.0 0.0 0.00 0.00 0.00 26 1014.9
20260504223129 16 288 0.0 0.0 0.00 0.00 0.00 26 1014.9
20260504222753 16 313 0.0 0.0 0.00 0.00 0.00 27 1015.1
20260504222243 16 8 0.0 0.0 0.00 0.00 0.00 27 1015.1
20260504221736 15 322 0.0 0.0 0.00 0.00 0.00 27 1015.1
20260504221245 15 336 0.0 0.0 0.00 0.00 0.00 28 1014.8
20260504220238 15 299 0.0 0.0 0.00 0.00 0.00 27 1014.8
20260504220146 15 309 0.0 0.0 0.00 0.00 0.00 28 1014.8
20260504215240 15 354 0.0 0.0 0.00 0.00 0.00 30 1014.7
20260504214252 14 288 0.0 0.0 0.00 0.00 0.00 31 1014.4
20260504213744 14 317 0.0 0.0 0.00 0.00 0.00 31 1014.4
20260504213243 13 84 0.0 0.0 0.00 0.00 0.00 32 1014.4
20260504213127 13 310 0.0 0.0 0.00 0.00 0.00 32 1014.4
20260504212749 13 329 0.0 0.0 0.00 0.00 0.00 32 1014.2
20260504212240 13 317 0.0 0.0 0.00 0.00 0.00 32 1014.2
20260504211753 13 322 0.0 0.0 0.00 0.00 0.00 33 1014.2
20260504211243 13 312 0.0 0.0 0.00 0.00 0.00 34 1013.8
20260504210745 13 313 0.0 0.0 0.00 0.00 0.00 35 1013.8
20260504210131 13 309 0.0 0.0 0.00 0.00 0.00 37 1013.8
20260504205752 12 326 0.0 0.0 0.00 0.00 0.00 38 1013.5
20260504205241 12 327 0.0 0.0 0.00 0.00 0.00 39 1013.5
20260504204735 12 327 0.0 0.0 0.00 0.00 0.00 40 1013.5
20260504204244 12 326 0.0 0.0 0.00 0.00 0.00 40 1013.3
20260504203738 12 326 0.0 0.0 0.00 0.00 0.00 40 1013.3
20260504203237 12 343 0.0 0.0 0.00 0.00 0.00 41 1013.3
20260504203140 12 340 0.0 0.0 0.00 0.00 0.00 41 1013.3
20260504202738 12 331 0.0 0.0 0.00 0.00 0.00 41 1013.0
20260504202248 12 347 0.0 0.0 0.00 0.00 0.00 41 1013.0
20260504200739 12 12 0.0 0.0 0.00 0.00 0.00 39 1012.5
20260504200236 12 334 0.0 0.0 0.00 0.00 0.00 39 1012.5
20260504200140 12 334 0.0 0.0 0.00 0.00 0.00 39 1012.5
20260504195741 12 333 0.0 0.0 0.00 0.00 0.00 38 1011.9
20260504195252 12 338 0.0 0.0 0.00 0.00 0.00 36 1011.9
20260504194744 12 346 0.0 0.0 0.00 0.00 0.00 36 1011.9
20260504193748 12 313 0.0 0.0 0.00 0.00 0.00 37 1011.7
20260504193137 12 80 0.0 0.0 0.00 0.00 0.00 37 1011.7
20260504192739 12 11 0.0 0.0 0.00 0.00 0.00 37 1011.5
20260504192250 12 306 0.0 0.0 0.00 0.00 0.00 37 1011.5
20260504191747 12 302 0.0 0.0 0.00 0.00 0.00 37 1011.5
20260504191238 12 320 0.0 0.0 0.00 0.00 0.00 36 1011.0
20260504190752 12 337 0.0 0.0 0.00 0.00 0.00 33 1011.0
20260504190250 12 346 0.0 0.0 0.00 0.00 0.00 33 1011.0
20260504190137 12 357 0.0 0.0 0.00 0.00 0.00 33 1011.0
20260504185238 12 334 0.0 0.0 0.00 0.00 0.00 35 1010.7
20260504184748 12 300 0.0 0.0 0.00 0.00 0.00 36 1010.7
20260504184241 12 316 0.0 0.0 0.00 0.00 0.00 37 1010.3
20260504183751 12 29 0.0 0.0 0.00 0.00 0.00 38 1010.3
20260504183249 12 313 0.0 0.0 0.00 0.00 0.00 40 1010.3
20260504183137 12 306 0.0 0.0 0.00 0.00 0.00 40 1010.3
20260504182742 12 347 0.0 0.0 0.00 0.00 0.00 40 1010.2
20260504182252 12 2 0.0 0.0 0.00 0.00 0.00 42 1010.2
20260504181745 12 353 0.0 0.0 0.00 0.00 0.00 41 1010.2
20260504181235 12 24 0.0 0.0 0.00 0.00 0.00 41 1009.6
20260504180736 12 326 0.0 0.0 0.00 0.00 0.00 41 1009.6
20260504180254 12 45 0.0 0.0 0.00 0.00 0.00 41 1009.6
20260504180137 12 355 0.0 0.0 0.00 0.00 0.00 41 1009.6
20260504175735 12 326 0.0 0.0 0.00 0.00 0.00 41 1008.9
20260504175247 12 326 0.0 0.0 0.00 0.00 0.00 41 1008.9
20260504174740 12 323 0.0 0.0 0.00 0.00 0.00 41 1008.9
20260504174250 12 322 0.0 0.0 0.00 0.00 0.00 41 1008.4
20260504173739 12 322 0.0 0.0 0.00 0.00 0.00 42 1008.4
20260504173130 12 317 0.0 0.0 0.00 0.00 0.00 43 1008.4
20260504172750 12 320 0.0 0.0 0.00 0.00 0.00 43 1008.3
20260504172238 12 83 0.0 0.0 0.00 0.00 0.00 44 1008.2
20260504170740 12 8 0.0 0.0 0.00 0.00 0.00 44 1007.8
20260504170237 12 336 0.0 0.0 0.00 0.00 0.00 44 1007.8
20260504170141 12 323 0.0 0.0 0.00 0.00 0.00 44 1007.8
20260504160251 12 350 0.0 0.0 0.00 0.00 0.00 43 1006.6
20260504160135 12 55 0.0 0.0 0.00 0.00 0.00 43 1006.6
20260504150744 14 348 0.0 0.0 0.00 0.00 0.00 45 1004.9
20260504150242 14 354 0.0 0.0 0.00 0.00 0.00 45 1004.9
20260504150146 14 322 0.0 0.0 0.00 0.00 0.00 45 1004.9
20260504141250 14 21 0.0 0.0 0.00 0.00 0.28 47 1003.4
20260504140743 15 322 0.0 0.0 0.00 0.00 0.28 47 1003.4
20260504140238 15 353 0.0 0.0 0.00 0.00 0.28 47 1003.4
20260504140142 15 26 0.0 0.0 0.00 0.00 0.28 47 1003.4
20260504130244 15 1 0.0 0.0 0.00 0.00 0.28 45 1001.9
20260504130132 15 316 0.0 0.0 0.00 0.00 0.28 45 1001.9
20260504120242 17 98 0.0 0.0 0.00 0.00 0.28 41 1000.3
20260504120127 17 324 0.0 0.0 0.00 0.00 0.28 41 1000.3
20260504110130 18 5 0.0 0.0 0.00 0.00 0.28 40 997.7
20260504100239 22 53 0.0 0.0 0.00 0.00 0.28 27 995.2
20260504100143 22 11 0.0 0.0 0.00 0.00 0.28 27 995.2
20260504090134 25 73 0.0 0.0 0.00 0.00 0.28 27 993.0
20260504081742 25 113 0.0 0.0 0.00 0.00 0.28 29 991.7
20260504081252 25 113 0.0 0.0 0.00 0.00 0.28 28 991.1
20260504080742 25 220 1.6 0.0 0.00 0.00 0.28 29 991.1
20260504070248 26 228 11.3 0.0 0.00 0.00 0.28 32 990.3
20260504060130 28 197 12.9 0.0 0.00 0.00 0.28 30 989.8
20260504050247 31 298 4.8 0.0 0.00 0.00 0.28 31 989.3
20260504050131 31 298 6.4 0.0 0.00 0.00 0.28 31 989.3
20260504045752 31 309 8.0 0.0 0.00 0.00 0.28 31 989.4